#timestamp,LO_Frequency,Hit,StdDev 
1615795215.6,286046996.9,N
1615795235.4,286046997.2,N
1615795255.3,286046997.1,N
1615795275.1,286046997.0,N
1615795295.8,286046996.7,N
1615795315.7,286046999.5,N
1615795335.5,286046998.7,N
1615795355.4,286046998.3,N
1615795375.2,286047000.7,N
1615795395.0,286046998.2,N
1615795395.9,286046998.2,N
1615795415.8,286047000.7,N
1615795435.6,286046998.3,N
1615795455.5,286046999.0,N
1615795475.3,286046999.0,N
1615795495.1,286046998.6,N
1615795515.9,286046998.5,N
1615795535.7,286046999.3,N
1615795555.5,286046998.4,N
1615795575.4,286046999.0,N
1615795595.2,286046999.1,N
1615795615.1,286046998.3,N
1615795616.0,286046998.3,N
1615795635.8,286047002.8,N
1615795655.6,286047001.0,N
1615795675.5,286047001.0,N
1615795695.3,286047000.6,N
1615795715.2,286046999.9,N
1615795735.9,286046999.1,N
1615795755.7,286047004.0,N
1615795775.6,286047001.6,N
1615795795.4,286046998.2,N
1615795815.2,286046999.2,N
1615795835.1,286047001.2,N
1615795836.0,286047001.2,N
1615795855.8,286046999.2,N
1615795875.7,286047000.4,N
1615795895.5,286046996.6,N
1615795915.3,286046996.5,N
1615795935.2,286046996.9,N
1615795955.0,286046997.2,N
1615795955.9,286046997.2,N
1615795975.7,286046997.5,N
1615795995.6,286046997.5,N
1615796015.4,286046996.1,N
1615796035.3,286046995.1,N
1615796055.1,286046995.9,N
1615796056.0,286046995.9,N
1615796075.8,286046996.2,N
1615796095.7,286046995.9,N
1615796115.5,286046994.5,N
1615796135.3,286046994.3,N
1615796155.2,286046991.9,Y
1615796175.0,286046996.4,P
1615796175.9,286046996.4,P
1615796195.8,286046993.7,P
1615796215.6,286046994.0,Y
1615796235.4,286046999.1,P
1615796255.3,286046996.7,N
1615796275.1,286046996.7,N
1615796295.9,286046997.5,N
1615796315.7,286046996.7,Y
1615796335.5,286046998.5,P
1615796355.4,286047001.1,N
1615796375.2,286046998.2,N
1615796395.0,286047000.6,N
1615796395.9,286047000.6,N
1615796415.8,286047000.3,N
1615796435.6,286046999.9,N
1615796455.5,286046998.5,N
1615796475.3,286046998.6,N
1615796495.1,286046998.2,N
1615796515.9,286046998.8,N
1615796535.7,286046999.1,N
1615796555.5,286046999.0,N
1615796575.4,286046998.3,N
1615796595.2,286046997.0,N
1615796615.0,286046999.2,N
1615796616.0,286046999.2,N
1615796635.8,286046996.6,Y
1615796655.6,286046998.3,P
1615796675.5,286047001.2,P
1615796695.3,286047000.6,N
1615796715.1,286047001.9,N
1615796735.9,286047001.6,N
1615796755.7,286047002.1,N
1615796775.6,286047002.6,N
1615796795.4,286047002.8,N
1615796815.2,286047002.4,N
1615796835.1,286047003.5,N
1615796836.0,286047003.5,N
1615796855.8,286047005.3,Y
1615796875.7,286047004.8,P
1615796895.5,286047007.0,P
1615796915.3,286047010.1,P
1615796935.2,286047015.5,Y
1615796955.9,286047007.1,P
1615796975.7,286047004.8,P
1615796995.6,286047003.5,P
1615797015.4,286047007.0,Y
1615797035.3,286047002.1,P
1615797055.1,286047003.0,N
1615797056.0,286047003.0,N
1615797075.8,286047004.0,Y
1615797095.7,286046998.9,P
1615797115.5,286046998.4,N
1615797135.3,286046997.8,N
1615797155.2,286046998.6,N
1615797175.0,286046999.9,N
1615797175.9,286046999.9,N
1615797195.8,286047001.8,N
1615797215.6,286047001.5,N
1615797235.4,286047001.8,N
1615797255.3,286047007.5,Y
1615797275.1,286047007.4,P
1615797295.8,286047005.2,N
1615797315.7,286047004.0,N
1615797335.5,286047003.7,N
1615797355.4,286047001.6,N
1615797375.2,286047001.8,N
1615797395.0,286047001.3,N
1615797395.9,286047001.3,N
1615797415.8,286047000.2,N
1615797435.6,286046999.0,N
1615797455.4,286046999.5,N
1615797475.3,286047002.6,N
1615797495.1,286047000.5,N
1615797515.9,286047002.5,N
1615797535.7,286047004.9,N
1615797555.5,286047005.0,N
1615797575.4,286047004.6,N
1615797595.2,286047007.4,Y
1615797615.0,286047003.3,P
1615797615.9,286047003.3,P
1615797635.8,286047003.8,P
1615797655.6,286046999.7,N
1615797675.5,286046998.3,N
1615797695.3,286046998.5,N
1615797715.1,286046998.3,N
1615797735.9,286046998.3,N
1615797755.7,286046999.3,N
1615797775.5,286047000.5,N
1615797795.4,286047001.6,N
1615797815.2,286047004.4,N
1615797835.1,286047005.0,N
1615797836.0,286047005.0,N
1615797855.8,286047003.8,N
1615797875.6,286047002.2,N
1615797895.5,286046998.6,N
1615797915.3,286046998.5,N
1615797935.2,286046997.7,N
1615797955.9,286046997.3,N
1615797975.7,286046996.4,N
1615797995.6,286046994.7,N
1615798015.4,286046994.2,N
1615798035.2,286046994.8,N
1615798055.1,286046993.5,N
1615798056.0,286046993.5,N
1615798075.8,286046997.6,N
1615798095.7,286046998.0,N
1615798115.5,286046995.3,N
1615798135.3,286046997.5,N
1615798155.2,286046996.5,N
1615798175.0,286046997.7,N
1615798175.9,286046997.7,N
1615798195.7,286046994.9,N
1615798215.6,286047000.9,N
1615798235.4,286047001.1,N
1615798255.3,286047002.0,N
1615798275.1,286047001.7,N
1615798276.0,286047001.7,N
1615798295.8,286047004.1,N
1615798315.7,286047000.5,N
1615798335.5,286046998.2,N
1615798355.4,286046996.5,N
1615798375.2,286046994.9,N
1615798395.0,286046996.1,N
1615798395.9,286046996.1,N
1615798415.8,286046994.5,N
1615798435.6,286046991.9,N
1615798455.4,286046990.2,Y
1615798475.3,286046996.4,P
1615798495.1,286046992.4,P
1615798515.9,286046992.0,P
1615798535.7,286046992.5,Y
1615798555.5,286046999.3,P
1615798575.4,286046996.7,N
1615798595.2,286046995.4,N
1615798615.0,286046993.8,Y
1615798615.9,286046993.8,P
1615798635.8,286046997.3,N
1615798655.6,286046995.0,P
1615798675.5,286046994.9,Y
1615798695.3,286046999.9,P
1615798715.1,286047000.1,N
1615798735.9,286046999.7,N
1615798755.7,286047002.6,N
1615798775.5,286047001.8,N
1615798795.4,286047002.5,N
